Regional Weather Roundup
Issued by NWS Sioux Falls, SD

Home | Current Version | Previous Version | Graphics & Text | Print | Product List | Glossary Off
Versions: 1 2 3 4 5 6 7 8 9 10 11 12 13 14 15 16 17 18 19 20 21 22 23 24 25 26 27 28 29 30 31 32 33 34 35 36 37 38 39 40 41 42 43 44 45 46 47 48 49 50

000
ASUS43 KFSD 052002
RWRFSD

WEATHER ROUNDUP FOR SE SOUTH DAKOTA/SW MINNESOTA/NW IOWA
NATIONAL WEATHER SERVICE SIOUX FALLS SD
300 PM CDT THU MAY 05 2016

NOTE: "FAIR" INDICATES FEW OR NO CLOUDS BELOW 12,000 FEET WITH NO
SIGNIFICANT WEATHER AND OR OBSTRUCTIONS TO VISIBILITY.


SDZ038>040-050-052>070-052100-
SOUTHEAST SOUTH DAKOTA

CITY           SKY/WX    TMP DP  RH WIND       PRES   REMARKS
BROOKINGS      SUNNY     79  42  26 S15       29.97F
CHAMBERLAIN    NOT AVBL
HURON          SUNNY     83  45  26 S15       29.93F
MADISON        FAIR      77  43  29 SW12G18   29.99F
MITCHELL       SUNNY     82  45  27 S9        29.96F
SIOUX FALLS    SUNNY     74  50  42 S10       30.00F
WINNER         FAIR      85  47  26 S15       29.93F
YANKTON        SUNNY     79  45  29 S10       29.98F
$$

MNZ071-072-080-081-089-090-097-098-052100-
SOUTHWEST MINNESOTA

CITY           SKY/WX    TMP DP  RH WIND       PRES   REMARKS
FAIRMONT       SUNNY     72  34  25 SW8       30.01F
JACKSON        SUNNY     73  30  20 SW10G16   30.02F
LUVERNE        SUNNY     75  34  22 SW8       30.01F
MARSHALL       SUNNY     80  42  25 SW13G21   29.96F
MONTEVIDEO     SUNNY     82  43  24 SW12      29.95F
PIPESTONE      SUNNY     75  37  25 SW12      30.01S
REDWOOD FALLS  SUNNY     81  37  20 SW14      29.96F
TRACY          SUNNY     79  41  26 W12G18    29.99S
WINDOM         SUNNY     75  36  23 SW7       30.00F
WORTHINGTON    SUNNY     74  38  27 SW8       30.03S
$$

IAZ001>003-012>014-020>022-031-032-NEZ013-014-SDZ071-052100-
NORTHWEST IOWA

CITY           SKY/WX    TMP DP  RH WIND       PRES   REMARKS
DENISON        SUNNY     72  36  26 CALM      30.04S
ESTHERVILLE    SUNNY     73  38  27 W10       30.02F
LE MARS        SUNNY     75  39  27 S8        30.03F
SHELDON        SUNNY     75  36  23 SW8G15    30.01F
SIOUX CITY     SUNNY     77  46  33 SE9       30.03S
SPENCER        SUNNY     74  35  24 S8        30.03F
STORM LAKE     SUNNY     72  32  23 VRB7      30.05F
$$

ABBREVIATIONS USED IN REMARKS
   TC - TEMPERATURE IN CELSIUS
  WCI - WIND CHILL INDEX
   HX - HEAT INDEX
  VSB - VISIBILITY





USA.gov is the U.S. government's official web portal to all federal, state and local government web resources and services.